Location: Belfast
(54.5830°N, 5.9330°W)
Time: 04:17:16
(UTC+00:00)

OTV 5 (USA 277) - Visible Passes

Search period start: 22 January 2018 00:00
Search period end: 01 February 2018 00:00
Orbit: 404 x 417 km, 43.0° (Epoch: 07 September)

Date Brightness Start Highest point End Pass type
(mag) Time Alt. Az. Time Alt. Az. Time Alt. Az.
27 Jan ? 19:41:59 10° SSW 19:42:09 10° SSW 19:42:09 10° SSW visible
28 Jan ? 18:51:15 10° SSW 18:52:31 12° S 18:53:32 10° SSE visible
29 Jan ? 18:00:47 10° S 18:01:40 11° S 18:02:33 10° SSE visible
29 Jan ? 19:36:59 10° SSW 19:37:41 11° SSW 19:37:41 11° SSW visible
30 Jan ? 18:45:53 10° SSW 18:47:12 12° S 18:48:32 10° SSE visible
31 Jan ? 17:55:00 10° SSW 17:56:22 12° S 17:57:44 10° SSE visible
